Location: *
(46.0770°N, 1.6444°E)
Time: 10:57:43
(UTC+00:00)

FREGAT/IRIS - Pass Details

Date: 16 September 2019
Orbit: 347 x 350 km, 97.0° (Epoch: 14 October)

Event Time Altitude Azimuth Distance (km) Brightness Sun altitude
Exits shadow 19:24:44 - 181° (S) 1,581 5.5 -14.6°
Reaches altitude 10° 19:25:21 10° 183° (S) 1,319 5.1 -14.7°
Maximum altitude 19:28:05 49° 260° (W) 470 3.3 -15.1°
Drops below altitude 10° 19:30:51 10° 337° (NNW) 1,335 5.9 -15.6°
Sets 19:32:50 0° 343° (NNW) 2,187 7.0 -15.9°
